Location: Binningen
(47.7924°N, 8.7261°E)
Time: 22:33:59
(UTC+00:00)

SPOT 5 - Pass Details

Date: 17 May 2021
Orbit: 622 x 815 km, 98.2° (Epoch: 24 June)

Event Time Altitude Azimuth Distance (km) Brightness Sun altitude
Exits shadow 21:31:17 22° 196° (SSW) 1,656 4.3 -18.3°
Maximum altitude 21:34:24 49° 261° (W) 1,029 3.7 -18.5°
Drops below altitude 10° 21:39:36 10° 336° (NNW) 2,414 6.8 -18.9°
Sets 21:42:04 0° 342° (NNW) 3,354 7.9 -19.1°
